{"data":{"norad_id":65813,"intl_designator":"2025-218Y","name":"STARLINK-35215","alt_names":[],"object_type":"PAYLOAD","status":"ACTIVE","operator":null,"country":"US","launch_date":"2025-09-26","launch_site_code":"AFWTR","launch_vehicle":null,"mission":null,"orbit_class":"UNKNOWN","rcs_meters":null,"size_class":null,"mass_kg":null,"dimensions":null,"purposes":["comms"],"wikipedia_slug":null,"has_3d_model":false,"image_url":null,"decayed_at":null,"tle_current":{"epoch":"2026-05-25T02:39:18.964224Z","epoch_age_seconds":61532,"freshness":"FRESH","line1":"1 65813U 25218Y   26145.11063616  .00004442  00000+0  31163-3 0  9993","line2":"2 65813  97.4528   7.9767 0001973  76.5117 283.6330 15.05659839 36479","mean_motion":15.05659839,"eccentricity":0.0001973,"inclination_deg":97.4528,"raan_deg":7.9767,"arg_perigee_deg":76.5117,"mean_anomaly_deg":283.633,"bstar":0.00031163,"rev_number":3647,"period_min":95.639131940744,"perigee_km":548.11415502013,"apogee_km":550.84779307269,"semimajor_km":6927.6179740464,"source":"CELESTRAK","updated_at":"2026-05-25T13:38:20.940849Z"}}}